User: anonymous   Login
Location: Turtle Rock Observatory
(36.6913°N, 81.9708°W)
Time: 20:15:19
(UTC-04:00)
Language:

Lacrosse 5 rocket - Orbit

View from above orbital plane
View from above orbital plane
View from above satellite
View from above satellite

Ground track
Ground track

The orbit data is extracted from the following two-line orbital elements,

1 28647U 05016B   17154.88049898 0.00000800  00000-0  47179-4 0    04
2 28647  56.9940  69.5741 0122295 302.8959  57.1040 15.04957484    05
Epoch (UTC): 03 June 2017 21:07:55
Eccentricity: 0.0122295
inclination: 56.9940°
perigee height: 467 km
apogee height: 636 km
right ascension of ascending node: 69.5741°
argument of perigee: 302.8959°
revolutions per day: 15.04957484
mean anomaly at epoch: 57.1040°
orbit number at epoch: 0

The dashed part of the orbit path shows where the satellite is in the earth's shadow,  

DLR